Time,TemperatureF,DewpointF,PressureIn,WindDirection,WindDirectionDegrees,WindSpeedMPH,WindSpeedGustMPH,Humidity,HourlyPrecipIn,Conditions,Clouds,dailyrainin,SoftwareType,DateUTC
2013-01-24 00:03:00,41.0,32.7,30.15,WSW,248,3.4,8.5,72,0.00,,,0.00,WUHU216HW,2013-01-24 08:03:00,
2013-01-24 00:08:00,41.4,33.0,30.15,West,270,6.3,10.3,72,0.00,,,0.00,WUHU216HW,2013-01-24 08:08:00,
2013-01-24 00:13:00,41.4,33.0,30.14,WSW,248,3.4,11.4,72,0.00,,,0.00,WUHU216HW,2013-01-24 08:13:00,
2013-01-24 00:18:00,41.6,33.2,30.13,WNW,293,3.8,11.4,72,0.00,,,0.00,WUHU216HW,2013-01-24 08:18:00,
2013-01-24 00:23:00,41.8,33.4,30.14,West,270,1.3,8.9,72,0.00,,,0.00,WUHU216HW,2013-01-24 08:23:00,
2013-01-24 00:28:00,42.1,33.8,30.14,WSW,248,8.3,8.9,72,0.00,,,0.00,WUHU216HW,2013-01-24 08:28:00,
2013-01-24 00:33:00,42.5,34.1,30.13,South,180,6.0,11.9,72,0.00,,,0.00,WUHU216HW,2013-01-24 08:33:00,
2013-01-24 00:38:00,42.7,34.0,30.14,SW,225,7.6,11.9,71,0.00,,,0.00,WUHU216HW,2013-01-24 08:38:00,
2013-01-24 00:43:00,42.7,34.0,30.14,South,180,5.6,11.4,71,0.00,,,0.00,WUHU216HW,2013-01-24 08:43:00,
2013-01-24 00:48:00,42.5,33.9,30.14,SSW,203,1.8,12.3,71,0.00,,,0.00,WUHU216HW,2013-01-24 08:48:00,
2013-01-24 00:53:00,42.7,34.0,30.14,WSW,248,4.3,12.3,71,0.00,,,0.00,WUHU216HW,2013-01-24 08:53:00,
2013-01-24 00:58:00,42.8,33.8,30.14,East,90,2.5,7.6,70,0.00,,,0.00,WUHU216HW,2013-01-24 08:58:00,
2013-01-24 01:03:00,42.8,33.8,30.14,North,0,3.4,6.3,70,0.00,,,0.00,WUHU216HW,2013-01-24 09:03:00,
2013-01-24 01:08:00,42.7,33.7,30.14,ENE,68,0.0,6.9,70,0.00,,,0.00,WUHU216HW,2013-01-24 09:08:00,
2013-01-24 01:13:00,42.5,33.5,30.14,NNW,338,1.6,6.9,70,0.00,,,0.00,WUHU216HW,2013-01-24 09:13:00,
2013-01-24 01:18:00,42.3,33.3,30.14,WSW,248,3.1,6.9,70,0.00,,,0.00,WUHU216HW,2013-01-24 09:18:00,
2013-01-24 01:23:00,42.1,33.5,30.15,SSW,203,5.8,7.2,71,0.00,,,0.00,WUHU216HW,2013-01-24 09:23:00,
2013-01-24 01:28:00,42.1,33.5,30.15,South,180,3.8,7.6,71,0.00,,,0.00,WUHU216HW,2013-01-24 09:28:00,
2013-01-24 01:33:00,42.1,33.8,30.14,SW,225,5.1,7.6,72,0.00,,,0.00,WUHU216HW,2013-01-24 09:33:00,
2013-01-24 01:38:00,42.3,34.3,30.14,WSW,248,6.7,12.3,73,0.00,,,0.00,WUHU216HW,2013-01-24 09:38:00,
2013-01-24 01:43:00,42.3,33.7,30.15,ESE,113,0.4,12.3,71,0.00,,,0.00,WUHU216HW,2013-01-24 09:43:00,
2013-01-24 01:48:00,42.3,33.7,30.15,ESE,113,4.0,6.7,71,0.00,,,0.00,WUHU216HW,2013-01-24 09:48:00,
2013-01-24 01:54:00,41.9,33.3,30.15,South,180,1.8,6.5,71,0.00,,,0.00,WUHU216HW,2013-01-24 09:54:00,
2013-01-24 01:59:00,41.8,33.1,30.15,SW,225,0.7,6.5,71,0.00,,,0.00,WUHU216HW,2013-01-24 09:59:00,
2013-01-24 02:04:00,41.6,33.2,30.15,SE,135,2.5,4.7,72,0.00,,,0.00,WUHU216HW,2013-01-24 10:04:00,
2013-01-24 02:09:00,41.4,33.0,30.14,SE,135,0.7,4.7,72,0.00,,,0.00,WUHU216HW,2013-01-24 10:09:00,
2013-01-24 02:14:00,41.2,32.9,30.14,WSW,248,0.0,2.5,72,0.00,,,0.00,WUHU216HW,2013-01-24 10:14:00,
2013-01-24 02:19:00,41.0,32.7,30.14,SW,225,2.5,5.4,72,0.00,,,0.00,WUHU216HW,2013-01-24 10:19:00,
2013-01-24 02:24:00,41.0,33.3,30.14,SW,225,6.9,6.9,74,0.00,,,0.00,WUHU216HW,2013-01-24 10:24:00,
2013-01-24 02:29:00,41.4,34.4,30.15,SW,225,4.0,8.7,76,0.00,,,0.00,WUHU216HW,2013-01-24 10:29:00,
2013-01-24 02:34:00,41.8,34.4,30.14,SW,225,3.8,8.7,75,0.00,,,0.00,WUHU216HW,2013-01-24 10:34:00,
2013-01-24 02:39:00,41.8,34.8,30.14,West,270,3.8,6.7,76,0.00,,,0.00,WUHU216HW,2013-01-24 10:39:00,
2013-01-24 02:44:00,42.1,35.1,30.14,SSW,203,4.5,7.4,76,0.00,,,0.00,WUHU216HW,2013-01-24 10:44:00,
2013-01-24 02:49:00,42.1,35.1,30.15,WSW,248,4.0,7.4,76,0.00,,,0.00,WUHU216HW,2013-01-24 10:49:00,
2013-01-24 02:54:00,42.1,35.1,30.14,SW,225,2.2,6.5,76,0.00,,,0.00,WUHU216HW,2013-01-24 10:54:00,
2013-01-24 02:59:00,42.1,35.1,30.14,SW,225,3.4,5.4,76,0.00,,,0.00,WUHU216HW,2013-01-24 10:59:00,
2013-01-24 03:04:00,41.9,35.2,30.15,SSE,158,1.6,5.8,77,0.00,,,0.00,WUHU216HW,2013-01-24 11:04:00,
2013-01-24 03:09:00,41.9,34.9,30.15,South,180,2.5,5.8,76,0.00,,,0.00,WUHU216HW,2013-01-24 11:09:00,
2013-01-24 03:14:00,41.8,34.8,30.14,SSE,158,0.4,3.4,76,0.00,,,0.00,WUHU216HW,2013-01-24 11:14:00,
2013-01-24 03:19:00,41.6,34.8,30.14,WSW,248,1.8,3.4,77,0.00,,,0.00,WUHU216HW,2013-01-24 11:19:00,
2013-01-24 03:24:00,41.4,34.7,30.14,WSW,248,1.3,4.3,77,0.00,,,0.00,WUHU216HW,2013-01-24 11:24:00,
2013-01-24 03:29:00,41.4,34.7,30.14,SSW,203,2.0,4.3,77,0.00,,,0.00,WUHU216HW,2013-01-24 11:29:00,
2013-01-24 03:34:00,41.2,34.5,30.14,West,270,1.8,4.5,77,0.00,,,0.00,WUHU216HW,2013-01-24 11:34:00,
2013-01-24 03:39:00,41.0,34.3,30.13,SSW,203,1.6,4.5,77,0.01,,,0.01,WUHU216HW,2013-01-24 11:39:00,
2013-01-24 03:44:00,40.9,34.5,30.13,WSW,248,0.0,2.9,78,0.01,,,0.01,WUHU216HW,2013-01-24 11:44:00,
2013-01-24 03:49:00,40.9,34.5,30.13,ENE,68,0.2,2.9,78,0.01,,,0.01,WUHU216HW,2013-01-24 11:49:00,
2013-01-24 03:54:00,40.7,34.7,30.13,East,90,1.1,2.5,79,0.01,,,0.01,WUHU216HW,2013-01-24 11:54:00,
2013-01-24 03:59:00,40.7,34.7,30.13,West,270,1.1,3.4,79,0.01,,,0.01,WUHU216HW,2013-01-24 11:59:00,
2013-01-24 04:04:00,40.5,34.5,30.12,North,0,0.7,3.4,79,0.01,,,0.01,WUHU216HW,2013-01-24 12:04:00,
2013-01-24 04:09:00,40.1,34.1,30.12,North,0,0.2,2.2,79,0.01,,,0.01,WUHU216HW,2013-01-24 12:09:00,
2013-01-24 04:14:00,40.0,33.9,30.12,West,270,1.1,1.3,79,0.01,,,0.01,WUHU216HW,2013-01-24 12:14:00,
2013-01-24 04:19:00,40.0,33.9,30.13,WNW,293,1.1,2.5,79,0.01,,,0.01,WUHU216HW,2013-01-24 12:19:00,
2013-01-24 04:24:00,39.8,33.9,30.12,SSW,203,1.6,2.9,79,0.01,,,0.01,WUHU216HW,2013-01-24 12:24:00,
2013-01-24 04:29:00,39.6,33.7,30.12,SW,225,1.1,4.0,79,0.01,,,0.01,WUHU216HW,2013-01-24 12:29:00,
2013-01-24 04:34:00,39.4,33.9,30.12,SE,135,1.3,4.0,80,0.00,,,0.01,WUHU216HW,2013-01-24 12:34:00,
2013-01-24 04:39:00,39.2,33.7,30.13,SW,225,0.0,2.9,80,0.00,,,0.01,WUHU216HW,2013-01-24 12:39:00,
2013-01-24 04:44:00,39.2,33.7,30.13,North,0,0.4,2.9,80,0.00,,,0.01,WUHU216HW,2013-01-24 12:44:00,
2013-01-24 04:49:00,39.4,34.1,30.13,ENE,68,0.0,1.3,81,0.00,,,0.01,WUHU216HW,2013-01-24 12:49:00,
2013-01-24 04:54:00,39.4,33.9,30.13,West,270,1.1,1.1,80,0.00,,,0.01,WUHU216HW,2013-01-24 12:54:00,
2013-01-24 04:59:00,39.2,33.7,30.13,SW,225,0.0,2.5,80,0.00,,,0.01,WUHU216HW,2013-01-24 12:59:00,
2013-01-24 05:04:00,39.2,33.7,30.13,SW,225,0.4,2.5,80,0.00,,,0.01,WUHU216HW,2013-01-24 13:04:00,
2013-01-24 05:09:00,39.2,33.7,30.13,SSW,203,0.2,1.3,80,0.00,,,0.01,WUHU216HW,2013-01-24 13:09:00,
2013-01-24 05:14:00,39.1,33.5,30.13,SSW,203,0.4,1.8,80,0.00,,,0.01,WUHU216HW,2013-01-24 13:14:00,
2013-01-24 05:19:00,38.9,33.6,30.13,SSW,203,0.4,1.8,81,0.01,,,0.02,WUHU216HW,2013-01-24 13:19:00,
2013-01-24 05:24:00,38.9,33.3,30.13,SW,225,0.0,2.0,80,0.01,,,0.02,WUHU216HW,2013-01-24 13:24:00,
2013-01-24 05:29:00,38.9,33.6,30.13,SSW,203,0.4,2.0,81,0.01,,,0.02,WUHU216HW,2013-01-24 13:29:00,
2013-01-24 05:34:00,38.7,33.1,30.13,WSW,248,0.2,1.8,80,0.01,,,0.02,WUHU216HW,2013-01-24 13:34:00,
2013-01-24 05:39:00,38.7,33.1,30.13,SSE,158,0.2,1.8,80,0.01,,,0.02,WUHU216HW,2013-01-24 13:39:00,
2013-01-24 05:44:00,38.5,33.2,30.13,West,270,2.5,2.5,81,0.01,,,0.02,WUHU216HW,2013-01-24 13:44:00,
2013-01-24 05:49:00,38.5,33.5,30.13,NW,315,1.8,3.4,82,0.01,,,0.02,WUHU216HW,2013-01-24 13:49:00,
2013-01-24 05:54:00,38.3,33.0,30.13,SSW,203,0.2,3.4,81,0.02,,,0.03,WUHU216HW,2013-01-24 13:54:00,
2013-01-24 05:59:00,38.2,32.9,30.14,WSW,248,0.7,2.2,81,0.02,,,0.03,WUHU216HW,2013-01-24 13:59:00,
2013-01-24 06:04:00,38.2,32.9,30.13,NNW,338,0.7,1.8,81,0.02,,,0.03,WUHU216HW,2013-01-24 14:04:00,
2013-01-24 06:09:00,38.2,32.9,30.14,NNW,338,0.0,0.7,81,0.02,,,0.03,WUHU216HW,2013-01-24 14:09:00,
2013-01-24 06:14:00,38.2,33.1,30.13,NNW,338,0.0,0.7,82,0.02,,,0.03,WUHU216HW,2013-01-24 14:14:00,
2013-01-24 06:19:00,38.0,32.9,30.13,NNW,338,0.4,0.4,82,0.02,,,0.04,WUHU216HW,2013-01-24 14:19:00,
2013-01-24 06:24:00,38.0,32.9,30.14,NNW,338,0.0,0.4,82,0.02,,,0.04,WUHU216HW,2013-01-24 14:24:00,
2013-01-24 06:29:00,38.0,32.9,30.14,SW,225,0.4,1.6,82,0.02,,,0.04,WUHU216HW,2013-01-24 14:29:00,
2013-01-24 06:34:00,37.8,32.8,30.14,SW,225,0.2,1.8,82,0.02,,,0.04,WUHU216HW,2013-01-24 14:34:00,
2013-01-24 06:39:00,37.8,32.8,30.14,SSW,203,0.0,1.8,82,0.02,,,0.04,WUHU216HW,2013-01-24 14:39:00,
2013-01-24 06:44:00,37.8,32.8,30.14,SE,135,1.1,1.1,82,0.02,,,0.04,WUHU216HW,2013-01-24 14:44:00,
2013-01-24 06:49:00,37.6,32.6,30.14,SE,135,0.4,1.1,82,0.03,,,0.05,WUHU216HW,2013-01-24 14:49:00,
2013-01-24 06:54:00,37.6,33.0,30.15,SSW,203,0.0,1.1,83,0.02,,,0.05,WUHU216HW,2013-01-24 14:54:00,
2013-01-24 06:59:00,37.6,33.0,30.14,WSW,248,1.1,1.1,83,0.02,,,0.05,WUHU216HW,2013-01-24 14:59:00,
2013-01-24 07:04:00,37.6,33.0,30.14,WSW,248,0.0,1.1,83,0.02,,,0.05,WUHU216HW,2013-01-24 15:04:00,
2013-01-24 07:09:00,37.6,33.0,30.15,WSW,248,0.4,1.1,83,0.03,,,0.06,WUHU216HW,2013-01-24 15:09:00,
2013-01-24 07:14:00,37.8,33.1,30.14,WSW,248,0.0,0.7,83,0.03,,,0.06,WUHU216HW,2013-01-24 15:14:00,
2013-01-24 07:19:00,37.8,33.4,30.14,WSW,248,0.0,0.7,84,0.02,,,0.06,WUHU216HW,2013-01-24 15:19:00,
2013-01-24 07:24:00,37.8,33.4,30.14,WSW,248,0.0,1.1,84,0.02,,,0.06,WUHU216HW,2013-01-24 15:24:00,
2013-01-24 07:29:00,37.8,33.4,30.15,WSW,248,0.0,1.1,84,0.03,,,0.07,WUHU216HW,2013-01-24 15:29:00,
2013-01-24 07:34:00,38.0,33.6,30.14,WSW,248,0.0,1.1,84,0.03,,,0.07,WUHU216HW,2013-01-24 15:34:00,
2013-01-24 07:39:00,38.0,33.6,30.14,WSW,248,0.0,1.1,84,0.03,,,0.07,WUHU216HW,2013-01-24 15:39:00,
2013-01-24 07:44:00,38.2,33.8,30.14,WSW,248,0.0,0.0,84,0.03,,,0.07,WUHU216HW,2013-01-24 15:44:00,
2013-01-24 07:49:00,38.2,33.8,30.15,WSW,248,0.0,0.4,84,0.02,,,0.07,WUHU216HW,2013-01-24 15:49:00,
2013-01-24 07:54:00,38.3,33.9,30.15,SW,225,0.4,1.1,84,0.02,,,0.07,WUHU216HW,2013-01-24 15:54:00,
2013-01-24 07:59:00,38.3,33.9,30.16,SSW,203,0.0,1.8,84,0.02,,,0.07,WUHU216HW,2013-01-24 15:59:00,
2013-01-24 08:04:00,38.5,34.4,30.15,SSW,203,0.0,1.8,85,0.02,,,0.07,WUHU216HW,2013-01-24 16:04:00,
2013-01-24 08:09:00,38.7,34.6,30.16,SW,225,0.2,1.1,85,0.02,,,0.08,WUHU216HW,2013-01-24 16:09:00,
2013-01-24 08:14:00,38.9,34.7,30.16,SW,225,0.0,1.1,85,0.02,,,0.08,WUHU216HW,2013-01-24 16:14:00,
2013-01-24 08:19:00,39.2,35.4,30.16,SW,225,0.4,0.9,86,0.02,,,0.08,WUHU216HW,2013-01-24 16:19:00,
2013-01-24 08:24:00,39.2,35.4,30.17,SSE,158,0.4,1.6,86,0.02,,,0.09,WUHU216HW,2013-01-24 16:24:00,
2013-01-24 08:29:00,39.4,35.6,30.16,ESE,113,0.4,1.6,86,0.02,,,0.09,WUHU216HW,2013-01-24 16:29:00,
2013-01-24 08:34:00,39.6,35.7,30.16,NW,315,0.2,1.1,86,0.02,,,0.09,WUHU216HW,2013-01-24 16:34:00,
2013-01-24 08:39:00,40.0,36.1,30.16,NNW,338,2.7,2.9,86,0.02,,,0.09,WUHU216HW,2013-01-24 16:39:00,
2013-01-24 08:44:00,40.1,36.5,30.16,NNW,338,0.7,4.9,87,0.02,,,0.09,WUHU216HW,2013-01-24 16:44:00,
2013-01-24 08:49:00,40.5,36.9,30.16,West,270,0.4,4.9,87,0.02,,,0.09,WUHU216HW,2013-01-24 16:49:00,
2013-01-24 08:54:00,40.7,37.1,30.17,North,0,0.2,3.4,87,0.02,,,0.09,WUHU216HW,2013-01-24 16:54:00,
2013-01-24 08:59:00,41.0,37.5,30.17,North,0,1.1,2.5,87,0.02,,,0.09,WUHU216HW,2013-01-24 16:59:00,
2013-01-24 09:04:00,41.4,37.8,30.18,North,0,0.7,2.5,87,0.01,,,0.09,WUHU216HW,2013-01-24 17:04:00,
2013-01-24 09:09:00,41.9,38.4,30.18,NNE,23,1.1,2.5,87,0.01,,,0.09,WUHU216HW,2013-01-24 17:09:00,
2013-01-24 09:14:00,42.1,38.5,30.18,NW,315,0.9,3.1,87,0.01,,,0.09,WUHU216HW,2013-01-24 17:14:00,
2013-01-24 09:19:00,42.1,38.5,30.18,North,0,1.1,4.0,87,0.02,,,0.10,WUHU216HW,2013-01-24 17:19:00,
2013-01-24 09:24:00,42.3,38.3,30.18,North,0,1.8,4.0,86,0.01,,,0.10,WUHU216HW,2013-01-24 17:24:00,
2013-01-24 09:29:00,42.7,39.1,30.18,North,0,1.1,1.8,87,0.01,,,0.10,WUHU216HW,2013-01-24 17:29:00,
2013-01-24 09:34:00,42.8,39.3,30.19,NNW,338,2.9,3.4,87,0.01,,,0.10,WUHU216HW,2013-01-24 17:34:00,
2013-01-24 09:39:00,42.8,39.3,30.19,North,0,0.4,3.4,87,0.01,,,0.10,WUHU216HW,2013-01-24 17:39:00,
2013-01-24 09:44:00,43.0,39.4,30.19,North,0,1.6,3.6,87,0.01,,,0.10,WUHU216HW,2013-01-24 17:44:00,
2013-01-24 09:49:00,43.0,39.1,30.20,WNW,293,0.2,3.6,86,0.02,,,0.11,WUHU216HW,2013-01-24 17:49:00,
2013-01-24 09:54:00,43.2,39.2,30.19,NW,315,1.8,3.4,86,0.02,,,0.11,WUHU216HW,2013-01-24 17:54:00,
2013-01-24 09:59:00,43.4,39.8,30.19,NNW,338,1.1,3.6,87,0.02,,,0.11,WUHU216HW,2013-01-24 17:59:00,
2013-01-24 10:04:00,43.4,39.8,30.20,WNW,293,0.2,3.6,87,0.02,,,0.11,WUHU216HW,2013-01-24 18:04:00,
2013-01-24 10:09:00,43.6,39.6,30.19,WNW,293,4.0,4.0,86,0.02,,,0.11,WUHU216HW,2013-01-24 18:09:00,
2013-01-24 10:14:00,43.6,39.6,30.20,SW,225,1.8,4.0,86,0.02,,,0.12,WUHU216HW,2013-01-24 18:14:00,
2013-01-24 10:19:00,43.6,39.6,30.20,WNW,293,3.4,4.7,86,0.02,,,0.12,WUHU216HW,2013-01-24 18:19:00,
2013-01-24 10:24:00,43.6,39.6,30.20,WNW,293,0.9,4.7,86,0.03,,,0.13,WUHU216HW,2013-01-24 18:24:00,
2013-01-24 10:29:00,43.6,39.6,30.20,NW,315,4.3,4.3,86,0.03,,,0.13,WUHU216HW,2013-01-24 18:29:00,
2013-01-24 10:34:00,43.6,39.6,30.20,NW,315,2.0,4.3,86,0.04,,,0.14,WUHU216HW,2013-01-24 18:34:00,
2013-01-24 10:39:00,43.6,39.3,30.20,NW,315,2.7,6.3,85,0.04,,,0.14,WUHU216HW,2013-01-24 18:39:00,
2013-01-24 10:44:00,43.6,39.3,30.20,West,270,1.3,6.3,85,0.05,,,0.15,WUHU216HW,2013-01-24 18:44:00,
2013-01-24 10:49:00,43.4,39.2,30.21,SW,225,0.7,3.6,85,0.04,,,0.15,WUHU216HW,2013-01-24 18:49:00,
2013-01-24 10:54:00,43.6,39.6,30.21,NNE,23,1.6,5.6,86,0.04,,,0.15,WUHU216HW,2013-01-24 18:54:00,
2013-01-24 10:59:00,43.7,40.2,30.21,WNW,293,4.3,6.3,87,0.04,,,0.15,WUHU216HW,2013-01-24 18:59:00,
2013-01-24 11:04:00,44.1,40.1,30.21,WNW,293,1.8,6.3,86,0.04,,,0.15,WUHU216HW,2013-01-24 19:04:00,
2013-01-24 11:09:00,44.3,40.3,30.21,NW,315,2.5,5.4,86,0.04,,,0.16,WUHU216HW,2013-01-24 19:09:00,
2013-01-24 11:14:00,44.5,40.2,30.21,WNW,293,0.9,6.7,85,0.04,,,0.16,WUHU216HW,2013-01-24 19:14:00,
2013-01-24 11:19:00,44.6,40.4,30.21,WNW,293,3.4,6.7,85,0.04,,,0.16,WUHU216HW,2013-01-24 19:19:00,
2013-01-24 11:24:00,44.8,40.6,30.20,NW,315,1.1,5.8,85,0.03,,,0.16,WUHU216HW,2013-01-24 19:24:00,
2013-01-24 11:29:00,45.0,40.8,30.19,NW,315,1.8,4.9,85,0.03,,,0.16,WUHU216HW,2013-01-24 19:29:00,
2013-01-24 11:34:00,45.0,40.5,30.19,WNW,293,1.6,4.9,84,0.02,,,0.16,WUHU216HW,2013-01-24 19:34:00,
2013-01-24 11:39:00,44.8,40.0,30.19,North,0,2.5,6.0,83,0.02,,,0.16,WUHU216HW,2013-01-24 19:39:00,
2013-01-24 11:44:00,44.6,39.8,30.19,North,0,3.4,6.0,83,0.01,,,0.16,WUHU216HW,2013-01-24 19:44:00,
2013-01-24 11:48:00,44.8,40.0,30.19,NNW,338,2.9,4.9,83,0.01,,,0.16,WUHU216HW,2013-01-24 19:48:00,
2013-01-24 11:53:00,45.0,40.1,30.19,NW,315,2.0,4.3,83,0.01,,,0.16,WUHU216HW,2013-01-24 19:53:00,
2013-01-24 11:58:00,45.0,39.9,30.19,North,0,0.7,4.3,82,0.01,,,0.16,WUHU216HW,2013-01-24 19:58:00,
2013-01-24 12:03:00,45.0,39.5,30.19,NW,315,1.1,3.4,81,0.00,,,0.16,WUHU216HW,2013-01-24 20:03:00,
2013-01-24 12:08:00,45.0,39.5,30.19,NNW,338,0.4,3.4,81,0.00,,,0.16,WUHU216HW,2013-01-24 20:08:00,
2013-01-24 12:13:00,45.2,39.7,30.19,NE,45,1.6,3.4,81,0.00,,,0.16,WUHU216HW,2013-01-24 20:13:00,
2013-01-24 12:18:00,45.4,39.9,30.19,NW,315,1.6,6.3,81,0.00,,,0.16,WUHU216HW,2013-01-24 20:18:00,
2013-01-24 12:23:00,45.5,40.1,30.19,North,0,1.6,6.3,81,0.00,,,0.16,WUHU216HW,2013-01-24 20:23:00,
2013-01-24 12:28:00,45.9,40.4,30.18,WSW,248,1.8,2.5,81,0.00,,,0.16,WUHU216HW,2013-01-24 20:28:00,
2013-01-24 12:33:00,46.4,41.0,30.18,West,270,3.4,3.4,81,0.00,,,0.16,WUHU216HW,2013-01-24 20:33:00,
2013-01-24 12:38:00,47.0,41.1,30.18,SSW,203,1.3,3.4,80,0.00,,,0.16,WUHU216HW,2013-01-24 20:38:00,
2013-01-24 12:44:00,47.3,41.5,30.18,NW,315,1.8,3.4,80,0.00,,,0.16,WUHU216HW,2013-01-24 20:44:00,
2013-01-24 12:49:00,47.9,41.7,30.18,SE,135,0.7,6.3,79,0.00,,,0.16,WUHU216HW,2013-01-24 20:49:00,
2013-01-24 12:54:00,48.2,41.6,30.18,WNW,293,1.1,6.3,78,0.00,,,0.16,WUHU216HW,2013-01-24 20:54:00,
2013-01-24 12:59:00,48.4,41.8,30.18,North,0,1.3,3.4,78,0.00,,,0.16,WUHU216HW,2013-01-24 20:59:00,
2013-01-24 13:04:00,48.4,41.5,30.17,WNW,293,2.2,3.6,77,0.00,,,0.16,WUHU216HW,2013-01-24 21:04:00,
2013-01-24 13:08:00,48.6,41.7,30.18,WNW,293,2.2,3.6,77,0.00,,,0.16,WUHU216HW,2013-01-24 21:08:00,
2013-01-24 13:14:00,48.6,41.7,30.18,North,0,1.1,3.4,77,0.00,,,0.16,WUHU216HW,2013-01-24 21:14:00,
2013-01-24 13:19:00,48.6,41.3,30.18,NNW,338,0.9,3.4,76,0.00,,,0.16,WUHU216HW,2013-01-24 21:19:00,
2013-01-24 13:24:00,48.8,41.5,30.18,NNE,23,3.4,4.7,76,0.00,,,0.16,WUHU216HW,2013-01-24 21:24:00,
2013-01-24 13:28:00,48.8,41.5,30.18,West,270,1.1,4.7,76,0.00,,,0.16,WUHU216HW,2013-01-24 21:28:00,
2013-01-24 13:34:00,48.8,41.1,30.18,North,0,1.8,3.4,75,0.00,,,0.16,WUHU216HW,2013-01-24 21:34:00,
2013-01-24 13:38:00,48.4,40.8,30.18,North,0,2.5,3.4,75,0.00,,,0.16,WUHU216HW,2013-01-24 21:38:00,
2013-01-24 13:43:00,48.1,40.4,30.18,NNW,338,1.3,3.8,75,0.00,,,0.16,WUHU216HW,2013-01-24 21:43:00,
2013-01-24 13:48:00,47.9,40.6,30.17,NNW,338,1.8,4.3,76,0.00,,,0.16,WUHU216HW,2013-01-24 21:48:00,
2013-01-24 13:53:00,47.9,40.6,30.17,NNW,338,1.8,4.3,76,0.00,,,0.16,WUHU216HW,2013-01-24 21:53:00,
2013-01-24 13:58:00,48.1,40.4,30.17,NW,315,2.0,4.3,75,0.00,,,0.16,WUHU216HW,2013-01-24 21:58:00,
2013-01-24 14:03:00,48.2,40.6,30.17,North,0,1.1,4.3,75,0.00,,,0.16,WUHU216HW,2013-01-24 22:03:00,
2013-01-24 14:09:00,48.4,40.8,30.17,WSW,248,0.4,3.4,75,0.00,,,0.16,WUHU216HW,2013-01-24 22:09:00,
2013-01-24 14:13:00,48.6,40.6,30.17,NNW,338,2.5,3.4,74,0.00,,,0.16,WUHU216HW,2013-01-24 22:13:00,
2013-01-24 14:18:00,48.4,40.1,30.17,WSW,248,2.2,4.0,73,0.00,,,0.16,WUHU216HW,2013-01-24 22:18:00,
2013-01-24 14:23:00,48.6,40.2,30.17,WSW,248,1.8,4.0,73,0.00,,,0.16,WUHU216HW,2013-01-24 22:23:00,
2013-01-24 14:28:00,48.6,40.0,30.17,West,270,1.1,4.5,72,0.00,,,0.16,WUHU216HW,2013-01-24 22:28:00,
2013-01-24 14:33:00,48.6,40.0,30.17,North,0,1.1,4.5,72,0.00,,,0.16,WUHU216HW,2013-01-24 22:33:00,
2013-01-24 14:38:00,48.6,40.0,30.18,WNW,293,1.1,3.4,72,0.00,,,0.16,WUHU216HW,2013-01-24 22:38:00,
2013-01-24 14:43:00,48.4,39.8,30.18,WNW,293,2.5,3.6,72,0.00,,,0.16,WUHU216HW,2013-01-24 22:43:00,
2013-01-24 14:48:00,48.4,39.8,30.18,West,270,2.9,3.6,72,0.00,,,0.16,WUHU216HW,2013-01-24 22:48:00,
2013-01-24 14:53:00,48.2,39.6,30.18,West,270,1.6,3.6,72,0.00,,,0.16,WUHU216HW,2013-01-24 22:53:00,
2013-01-24 14:58:00,48.2,39.6,30.18,West,270,0.4,3.1,72,0.00,,,0.16,WUHU216HW,2013-01-24 22:58:00,
2013-01-24 15:03:00,48.1,39.4,30.18,WSW,248,1.6,2.5,72,0.00,,,0.16,WUHU216HW,2013-01-24 23:03:00,
2013-01-24 15:08:00,48.1,39.4,30.18,SW,225,0.4,1.8,72,0.00,,,0.16,WUHU216HW,2013-01-24 23:08:00,
2013-01-24 15:13:00,48.1,39.4,30.17,WSW,248,0.4,3.6,72,0.00,,,0.16,WUHU216HW,2013-01-24 23:13:00,
2013-01-24 15:18:00,48.1,39.4,30.17,West,270,0.4,3.6,72,0.00,,,0.16,WUHU216HW,2013-01-24 23:18:00,
2013-01-24 15:23:00,48.1,39.4,30.17,SW,225,0.2,2.2,72,0.00,,,0.16,WUHU216HW,2013-01-24 23:23:00,
2013-01-24 15:28:00,48.1,39.4,30.17,North,0,0.4,2.2,72,0.00,,,0.16,WUHU216HW,2013-01-24 23:28:00,
2013-01-24 15:33:00,47.9,39.2,30.17,NNW,338,0.9,1.8,72,0.00,,,0.16,WUHU216HW,2013-01-24 23:33:00,
2013-01-24 15:38:00,47.9,39.2,30.17,North,0,0.7,1.8,72,0.00,,,0.16,WUHU216HW,2013-01-24 23:38:00,
2013-01-24 15:43:00,47.7,38.7,30.18,NNW,338,0.7,1.8,71,0.00,,,0.16,WUHU216HW,2013-01-24 23:43:00,
2013-01-24 15:48:00,47.5,38.6,30.18,North,0,1.6,2.7,71,0.00,,,0.16,WUHU216HW,2013-01-24 23:48:00,
2013-01-24 15:53:00,47.7,39.1,30.18,West,270,1.8,3.1,72,0.00,,,0.16,WUHU216HW,2013-01-24 23:53:00,
2013-01-24 15:58:00,47.7,39.1,30.18,WNW,293,0.7,3.1,72,0.00,,,0.16,WUHU216HW,2013-01-24 23:58:00,
2013-01-24 16:03:00,47.5,38.9,30.18,WNW,293,2.0,2.9,72,0.00,,,0.16,WUHU216HW,2013-01-25 00:03:00,
2013-01-24 16:08:00,47.3,38.8,30.18,WNW,293,1.1,2.9,72,0.00,,,0.16,WUHU216HW,2013-01-25 00:08:00,
2013-01-24 16:13:00,47.3,38.8,30.18,NNW,338,0.7,3.6,72,0.00,,,0.16,WUHU216HW,2013-01-25 00:13:00,
2013-01-24 16:18:00,47.2,38.6,30.18,SW,225,0.4,3.6,72,0.00,,,0.16,WUHU216HW,2013-01-25 00:18:00,
2013-01-24 16:23:00,47.0,38.4,30.18,West,270,0.4,1.8,72,0.00,,,0.16,WUHU216HW,2013-01-25 00:23:00,
2013-01-24 16:28:00,46.8,38.3,30.18,West,270,0.0,0.4,72,0.00,,,0.16,WUHU216HW,2013-01-25 00:28:00,
2013-01-24 16:33:00,46.4,38.0,30.18,West,270,0.0,0.4,72,0.00,,,0.16,WUHU216HW,2013-01-25 00:33:00,
2013-01-24 16:38:00,46.3,37.8,30.18,WNW,293,0.0,0.2,72,0.00,,,0.16,WUHU216HW,2013-01-25 00:38:00,
2013-01-24 16:43:00,45.9,37.5,30.19,WNW,293,0.4,0.4,72,0.00,,,0.16,WUHU216HW,2013-01-25 00:43:00,
2013-01-24 16:48:00,45.7,37.3,30.19,WNW,293,0.0,0.7,72,0.00,,,0.16,WUHU216HW,2013-01-25 00:48:00,
2013-01-24 16:53:00,45.2,36.7,30.19,West,270,0.4,1.1,72,0.00,,,0.16,WUHU216HW,2013-01-25 00:53:00,
2013-01-24 16:58:00,44.8,36.4,30.19,West,270,0.4,1.1,72,0.00,,,0.16,WUHU216HW,2013-01-25 00:58:00,
2013-01-24 17:03:00,44.3,36.2,30.19,WSW,248,1.1,1.8,73,0.00,,,0.16,WUHU216HW,2013-01-25 01:03:00,
2013-01-24 17:08:00,43.9,35.8,30.19,WSW,248,0.9,1.8,73,0.00,,,0.16,WUHU216HW,2013-01-25 01:08:00,
2013-01-24 17:13:00,43.4,35.0,30.19,WSW,248,0.0,1.8,72,0.00,,,0.16,WUHU216HW,2013-01-25 01:13:00,
2013-01-24 17:18:00,43.0,35.0,30.19,WSW,248,0.0,1.1,73,0.00,,,0.16,WUHU216HW,2013-01-25 01:18:00,
2013-01-24 17:23:00,42.8,34.8,30.20,WSW,248,0.9,0.9,73,0.00,,,0.16,WUHU216HW,2013-01-25 01:23:00,
2013-01-24 17:28:00,42.5,34.7,30.20,WSW,248,0.0,1.1,74,0.00,,,0.16,WUHU216HW,2013-01-25 01:28:00,
2013-01-24 17:33:00,42.1,34.4,30.20,South,180,0.0,1.1,74,0.00,,,0.16,WUHU216HW,2013-01-25 01:33:00,
2013-01-24 17:38:00,41.8,34.0,30.20,South,180,0.4,1.1,74,0.00,,,0.16,WUHU216HW,2013-01-25 01:38:00,
2013-01-24 17:43:00,41.4,34.0,30.20,South,180,0.0,1.1,75,0.00,,,0.16,WUHU216HW,2013-01-25 01:43:00,
2013-01-24 17:48:00,41.4,34.0,30.20,South,180,0.0,0.4,75,0.00,,,0.16,WUHU216HW,2013-01-25 01:48:00,
2013-01-24 17:53:00,41.2,33.8,30.20,South,180,0.9,1.1,75,0.00,,,0.16,WUHU216HW,2013-01-25 01:53:00,
2013-01-24 17:58:00,40.9,33.5,30.21,SW,225,1.6,1.6,75,0.00,,,0.16,WUHU216HW,2013-01-25 01:58:00,
2013-01-24 18:03:00,40.5,33.5,30.20,SW,225,0.7,1.8,76,0.00,,,0.16,WUHU216HW,2013-01-25 02:03:00,
2013-01-24 18:08:00,40.1,33.1,30.20,WSW,248,1.8,1.8,76,0.00,,,0.16,WUHU216HW,2013-01-25 02:08:00,
2013-01-24 18:13:00,40.0,33.3,30.20,SW,225,1.1,1.8,77,0.00,,,0.16,WUHU216HW,2013-01-25 02:13:00,
2013-01-24 18:19:00,39.6,32.9,30.20,SW,225,1.8,1.8,77,0.00,,,0.16,WUHU216HW,2013-01-25 02:19:00,
2013-01-24 18:24:00,39.6,32.9,30.21,WSW,248,1.8,2.0,77,0.00,,,0.16,WUHU216HW,2013-01-25 02:24:00,
2013-01-24 18:29:00,39.4,32.8,30.20,WSW,248,1.8,2.0,77,0.00,,,0.16,WUHU216HW,2013-01-25 02:29:00,
2013-01-24 18:34:00,39.2,32.9,30.20,SW,225,1.3,1.8,78,0.00,,,0.16,WUHU216HW,2013-01-25 02:34:00,
2013-01-24 18:38:00,39.2,32.9,30.20,WSW,248,2.2,2.2,78,0.00,,,0.16,WUHU216HW,2013-01-25 02:38:00,
2013-01-24 18:43:00,39.1,32.8,30.20,SW,225,1.8,2.5,78,0.00,,,0.16,WUHU216HW,2013-01-25 02:43:00,
2013-01-24 18:48:00,39.1,33.1,30.20,SW,225,2.0,2.5,79,0.00,,,0.16,WUHU216HW,2013-01-25 02:48:00,
2013-01-24 18:53:00,38.9,32.9,30.20,SW,225,1.1,2.2,79,0.00,,,0.16,WUHU216HW,2013-01-25 02:53:00,
2013-01-24 18:58:00,38.9,32.9,30.20,WSW,248,1.6,2.0,79,0.00,,,0.16,WUHU216HW,2013-01-25 02:58:00,
2013-01-24 19:03:00,38.7,32.8,30.21,WSW,248,0.0,1.8,79,0.00,,,0.16,WUHU216HW,2013-01-25 03:03:00,
2013-01-24 19:09:00,38.5,32.6,30.20,South,180,0.2,1.8,79,0.00,,,0.16,WUHU216HW,2013-01-25 03:09:00,
2013-01-24 19:14:00,38.5,32.6,30.20,South,180,0.7,1.1,79,0.00,,,0.16,WUHU216HW,2013-01-25 03:14:00,
2013-01-24 19:19:00,38.3,32.4,30.20,WSW,248,1.1,2.2,79,0.00,,,0.16,WUHU216HW,2013-01-25 03:19:00,
2013-01-24 19:24:00,38.2,32.2,30.20,WSW,248,0.0,2.2,79,0.00,,,0.16,WUHU216HW,2013-01-25 03:24:00,
2013-01-24 19:29:00,38.2,32.6,30.21,WSW,248,0.7,1.1,80,0.00,,,0.16,WUHU216HW,2013-01-25 03:29:00,
2013-01-24 19:34:00,38.0,32.4,30.21,WSW,248,1.3,1.3,80,0.00,,,0.16,WUHU216HW,2013-01-25 03:34:00,
2013-01-24 19:39:00,38.0,32.4,30.21,WSW,248,0.9,1.8,80,0.00,,,0.16,WUHU216HW,2013-01-25 03:39:00,
2013-01-24 19:44:00,37.8,32.2,30.21,WSW,248,0.4,1.8,80,0.00,,,0.16,WUHU216HW,2013-01-25 03:44:00,
2013-01-24 19:49:00,37.8,32.2,30.21,WSW,248,0.7,1.3,80,0.00,,,0.16,WUHU216HW,2013-01-25 03:49:00,
2013-01-24 19:54:00,37.8,32.5,30.21,WSW,248,0.4,0.7,81,0.00,,,0.16,WUHU216HW,2013-01-25 03:54:00,
2013-01-24 19:58:00,37.8,32.5,30.21,WSW,248,1.1,1.3,81,0.00,,,0.16,WUHU216HW,2013-01-25 03:58:00,
2013-01-24 20:03:00,37.6,32.3,30.21,WSW,248,0.4,1.3,81,0.00,,,0.16,WUHU216HW,2013-01-25 04:03:00,
2013-01-24 20:08:00,37.6,32.3,30.21,WSW,248,0.2,1.1,81,0.00,,,0.16,WUHU216HW,2013-01-25 04:08:00,
2013-01-24 20:13:00,37.6,32.6,30.21,WSW,248,0.0,0.9,82,0.00,,,0.16,WUHU216HW,2013-01-25 04:13:00,
2013-01-24 20:18:00,37.8,32.8,30.21,WSW,248,0.7,0.7,82,0.00,,,0.16,WUHU216HW,2013-01-25 04:18:00,
2013-01-24 20:23:00,37.8,32.8,30.21,WSW,248,0.7,1.1,82,0.00,,,0.16,WUHU216HW,2013-01-25 04:23:00,
2013-01-24 20:28:00,37.6,32.6,30.21,WSW,248,0.9,1.1,82,0.00,,,0.16,WUHU216HW,2013-01-25 04:28:00,
2013-01-24 20:33:00,37.6,32.6,30.21,WSW,248,0.9,1.3,82,0.00,,,0.16,WUHU216HW,2013-01-25 04:33:00,
2013-01-24 20:38:00,37.4,32.1,30.21,WSW,248,0.9,1.3,81,0.00,,,0.16,WUHU216HW,2013-01-25 04:38:00,
2013-01-24 20:43:00,37.3,32.2,30.21,WSW,248,1.6,1.8,82,0.00,,,0.16,WUHU216HW,2013-01-25 04:43:00,
2013-01-24 20:49:00,37.1,31.8,30.21,WSW,248,1.1,2.0,81,0.00,,,0.16,WUHU216HW,2013-01-25 04:49:00,
2013-01-24 20:53:00,37.1,32.0,30.21,WSW,248,0.7,2.0,82,0.00,,,0.16,WUHU216HW,2013-01-25 04:53:00,
2013-01-24 20:58:00,37.1,32.0,30.21,WSW,248,1.6,1.6,82,0.00,,,0.16,WUHU216HW,2013-01-25 04:58:00,
2013-01-24 21:00:00,37.1,32.0,30.21,WSW,248,1.3,1.8,82,0.00,,,0.16,WUHU216HW,2013-01-25 05:00:00,
2013-01-24 21:01:00,37.1,32.0,30.21,WSW,248,1.3,1.8,82,0.00,,,0.16,WUHU216HW,2013-01-25 05:01:00,
2013-01-24 21:03:00,37.1,32.0,30.21,WSW,248,1.1,1.8,82,0.00,,,0.16,WUHU216HW,2013-01-25 05:03:00,
2013-01-24 21:08:00,37.1,32.0,30.21,WSW,248,1.6,2.0,82,0.00,,,0.16,WUHU216HW,2013-01-25 05:08:00,
2013-01-24 21:13:00,37.1,32.0,30.21,WSW,248,1.6,2.0,82,0.00,,,0.16,WUHU216HW,2013-01-25 05:13:00,
2013-01-24 21:18:00,37.1,32.0,30.21,WSW,248,0.4,1.8,82,0.00,,,0.16,WUHU216HW,2013-01-25 05:18:00,
2013-01-24 21:23:00,37.1,32.0,30.22,SW,225,1.8,2.5,82,0.00,,,0.16,WUHU216HW,2013-01-25 05:23:00,
2013-01-24 21:28:00,37.1,32.0,30.22,SW,225,0.0,2.5,82,0.00,,,0.16,WUHU216HW,2013-01-25 05:28:00,
2013-01-24 21:33:00,37.1,32.0,30.22,SW,225,1.1,1.8,82,0.00,,,0.16,WUHU216HW,2013-01-25 05:33:00,
2013-01-24 21:38:00,37.1,32.0,30.22,SW,225,1.1,1.1,82,0.00,,,0.16,WUHU216HW,2013-01-25 05:38:00,
2013-01-24 21:43:00,37.1,32.0,30.22,WSW,248,1.3,2.2,82,0.00,,,0.16,WUHU216HW,2013-01-25 05:43:00,
2013-01-24 21:48:00,37.1,32.0,30.21,WSW,248,0.0,2.2,82,0.00,,,0.16,WUHU216HW,2013-01-25 05:48:00,
2013-01-24 21:53:00,37.1,32.0,30.21,WSW,248,1.3,1.8,82,0.00,,,0.16,WUHU216HW,2013-01-25 05:53:00,
2013-01-24 21:58:00,37.1,32.0,30.21,WSW,248,0.4,1.8,82,0.00,,,0.16,WUHU216HW,2013-01-25 05:58:00,
2013-01-24 22:03:00,37.1,32.0,30.21,WSW,248,1.3,1.8,82,0.00,,,0.16,WUHU216HW,2013-01-25 06:03:00,
2013-01-24 22:08:00,36.9,31.9,30.21,WSW,248,0.2,1.8,82,0.00,,,0.16,WUHU216HW,2013-01-25 06:08:00,
2013-01-24 22:13:00,36.9,32.2,30.21,WSW,248,0.0,1.3,83,0.00,,,0.16,WUHU216HW,2013-01-25 06:13:00,
2013-01-24 22:18:00,36.9,32.2,30.21,WSW,248,1.6,1.8,83,0.00,,,0.16,WUHU216HW,2013-01-25 06:18:00,
2013-01-24 22:23:00,36.9,32.2,30.21,WSW,248,0.7,1.8,83,0.00,,,0.16,WUHU216HW,2013-01-25 06:23:00,
2013-01-24 22:28:00,36.9,31.9,30.22,WSW,248,1.3,2.0,82,0.00,,,0.16,WUHU216HW,2013-01-25 06:28:00,
2013-01-24 22:33:00,36.7,32.1,30.21,West,270,0.9,2.0,83,0.00,,,0.16,WUHU216HW,2013-01-25 06:33:00,
2013-01-24 22:38:00,36.7,32.1,30.22,West,270,0.4,1.3,83,0.00,,,0.16,WUHU216HW,2013-01-25 06:38:00,
2013-01-24 22:43:00,36.9,32.2,30.22,West,270,0.7,1.1,83,0.00,,,0.16,WUHU216HW,2013-01-25 06:43:00,
2013-01-24 22:48:00,36.9,32.2,30.22,North,0,0.4,1.8,83,0.00,,,0.16,WUHU216HW,2013-01-25 06:48:00,
2013-01-24 22:53:00,36.9,32.5,30.21,NW,315,0.0,1.8,84,0.00,,,0.16,WUHU216HW,2013-01-25 06:53:00,
2013-01-24 22:58:00,37.1,32.7,30.21,NNE,23,0.0,0.7,84,0.00,,,0.16,WUHU216HW,2013-01-25 06:58:00,
2013-01-24 23:03:00,37.1,32.4,30.21,South,180,1.8,1.8,83,0.00,,,0.16,WUHU216HW,2013-01-25 07:03:00,
2013-01-24 23:08:00,37.1,32.4,30.21,South,180,0.0,1.8,83,0.00,,,0.16,WUHU216HW,2013-01-25 07:08:00,
2013-01-24 23:13:00,37.1,32.7,30.21,South,180,0.7,1.1,84,0.00,,,0.16,WUHU216HW,2013-01-25 07:13:00,
2013-01-24 23:18:00,37.1,32.7,30.21,SW,225,0.9,1.6,84,0.00,,,0.16,WUHU216HW,2013-01-25 07:18:00,
2013-01-24 23:23:00,37.1,32.7,30.21,WSW,248,2.0,2.0,84,0.00,,,0.16,WUHU216HW,2013-01-25 07:23:00,
2013-01-24 23:28:00,37.1,32.7,30.21,WSW,248,2.0,2.2,84,0.00,,,0.16,WUHU216HW,2013-01-25 07:28:00,
2013-01-24 23:33:00,37.1,32.7,30.21,WSW,248,2.0,2.9,84,0.00,,,0.16,WUHU216HW,2013-01-25 07:33:00,
2013-01-24 23:38:00,37.1,32.7,30.21,WSW,248,0.7,2.9,84,0.00,,,0.16,WUHU216HW,2013-01-25 07:38:00,
2013-01-24 23:43:00,37.1,32.7,30.21,WSW,248,0.7,2.2,84,0.00,,,0.16,WUHU216HW,2013-01-25 07:43:00,
2013-01-24 23:48:00,37.1,32.7,30.21,WSW,248,1.1,1.6,84,0.00,,,0.16,WUHU216HW,2013-01-25 07:48:00,
2013-01-24 23:53:00,37.1,32.7,30.21,WSW,248,0.7,1.6,84,0.00,,,0.16,WUHU216HW,2013-01-25 07:53:00,
2013-01-24 23:58:00,37.1,32.7,30.21,WSW,248,0.4,1.3,84,0.00,,,0.16,WUHU216HW,2013-01-25 07:58:00,